Ionia, MI

3:25 AM EDT on May 28, 2017 (GMT -0400)
Ionia

Weather History for KY70 - September, 2013

Change the Weather History Date:

Thursday, September 5, 2013

  Actual Average (KGRR) Record (KGRR)
Temperature  
Mean Temperature 59 °F -  
Max Temperature 69 °F 76 °F 92 °F (1954)
Min Temperature 49 °F 54 °F 39 °F (1974)
Degree Days  
Heating Degree Days 6    
Growing Degree Days 9 (Base 50)    
Moisture  
Dew Point 47 °F    
Average Humidity 67    
Maximum Humidity 97    
Minimum Humidity 35    
Precipitation  
Precipitation 0.00 in - - ()
Sea Level Pressure  
Sea Level Pressure 30.23 in    
Wind  
Wind Speed 5 mph (NE)    
Max Wind Speed 9 mph    
Max Gust Speed -    
Visibility 10 miles    
Events      
Averages and records for this station are not official NWS values.
T = Trace of Precipitation, MM = Missing Value Source: NWS Daily Summary

Daily Weather History Graph

Daily Weather History Graph

Search for Another Location

Airport or City:

Trip Planner

Search our weather history database for the weather conditions in past years. The results will help you decide how hot, cold, wet, or windy it might be!

Date:

Astronomy

Sep. 05, 2013 Rise Set
Actual Time 7:09 AM EDT 8:07 PM EDT
Civil Twilight 6:40 AM EDT 8:36 PM EDT
Nautical Twilight 6:05 AM EDT 9:10 PM EDT
Astronomical Twilight 5:29 AM EDT 9:46 PM EDT
Moon 7:21 AM EDT (9/5) 7:56 PM EDT (9/5)
Length of Visible Light 13h 55m
Length of Day
12h 58m
New Moon, 0% of the Moon is Illuminated
Sep 5
New Moon
Sep 12
First Quarter
Sep 19
Full
Sep 26
Last Quarter
Oct 4
New

Hourly Weather History & Observations

Time (EDT) Temp. Dew Point Humidity Pressure Visibility Wind Dir Wind Speed Gust Speed Precip Events Conditions
12:14 AM 63.5 °F 60.8 °F 91% 30.12 in 10.0 mi North 3.5 mph - N/A   Scattered Clouds
12:34 AM 63.0 °F 60.3 °F 91% 30.13 in 10.0 mi North 4.6 mph - N/A   Mostly Cloudy
12:54 AM 62.4 °F 58.8 °F 88% 30.14 in 10.0 mi NNE 6.9 mph - N/A   Scattered Clouds
1:14 AM 61.7 °F 57.6 °F 86% 30.14 in 10.0 mi North 8.1 mph - N/A   Clear
1:34 AM 60.1 °F 56.7 °F 88% 30.15 in 10.0 mi NNE 9.2 mph - N/A   Clear
1:54 AM 59.0 °F 55.0 °F 87% 30.15 in 10.0 mi NNE 5.8 mph - N/A   Clear
2:14 AM 57.4 °F 53.8 °F 88% 30.15 in 10.0 mi NNE 4.6 mph - N/A   Clear
2:34 AM 57.2 °F 52.9 °F 85% 30.15 in 10.0 mi Calm Calm - N/A   Clear
2:54 AM 56.5 °F 51.4 °F 83% 30.15 in 10.0 mi Calm Calm - N/A   Clear
3:14 AM 57.4 °F 51.8 °F 82% 30.15 in 10.0 mi Calm Calm - N/A   Clear
3:34 AM 54.1 °F 51.3 °F 90% 30.16 in 10.0 mi Calm Calm - N/A   Clear
3:54 AM 52.5 °F 51.4 °F 96% 30.16 in 10.0 mi Calm Calm - N/A   Clear
4:14 AM 54.7 °F 53.8 °F 97% 30.17 in 10.0 mi Calm Calm - N/A   Clear
4:34 AM 53.8 °F 50.9 °F 90% 30.17 in 10.0 mi Calm Calm - N/A   Clear
4:54 AM 50.9 °F 50.0 °F 97% 30.19 in 7.0 mi North 4.6 mph - N/A   Clear
5:14 AM 52.5 °F 50.5 °F 93% 30.20 in 10.0 mi NNE 5.8 mph - N/A   Clear
5:34 AM 52.9 °F 49.1 °F 87% 30.20 in 10.0 mi NNE 4.6 mph - N/A   Clear
5:54 AM 52.7 °F 48.7 °F 86% 30.21 in 10.0 mi NNE 4.6 mph - N/A   Clear
6:14 AM 51.6 °F 48.2 °F 88% 30.22 in 10.0 mi NNE 5.8 mph - N/A   Clear
6:34 AM 50.4 °F 47.8 °F 91% 30.23 in 10.0 mi NNE 6.9 mph - N/A   Clear
6:54 AM 50.9 °F 47.3 °F 87% 30.24 in 10.0 mi NNE 6.9 mph - N/A   Clear
7:14 AM 50.0 °F 46.4 °F 87% 30.24 in 10.0 mi NNE 5.8 mph - N/A   Clear
7:34 AM 49.6 °F 45.5 °F 86% 30.24 in 10.0 mi North - - N/A   Clear
7:54 AM 50.0 °F 45.9 °F 86% 30.26 in 10.0 mi NNE 4.6 mph - N/A   Clear
8:14 AM 51.1 °F 46.4 °F 84% 30.26 in 10.0 mi NNE 5.8 mph - N/A   Clear
8:34 AM 52.3 °F 46.6 °F 81% 30.26 in 10.0 mi NNE 5.8 mph - N/A   Clear
8:54 AM 53.6 °F 46.9 °F 78% 30.27 in 10.0 mi NNE 5.8 mph - N/A   Clear
9:14 AM 54.5 °F 47.1 °F 76% 30.27 in 10.0 mi NNE 9.2 mph - N/A   Clear
9:34 AM 55.9 °F 48.2 °F 75% 30.28 in 10.0 mi NNE 9.2 mph - N/A   Clear
9:54 AM 56.7 °F 48.0 °F 73% 30.28 in 10.0 mi NE 8.1 mph - N/A   Clear
10:14 AM 57.7 °F 48.2 °F 70% 30.28 in 10.0 mi NNE 5.8 mph - N/A   Clear
10:34 AM 59.0 °F 48.6 °F 68% 30.28 in 10.0 mi North 6.9 mph - N/A   Clear
10:54 AM 59.9 °F 48.2 °F 65% 30.28 in 10.0 mi NNE 9.2 mph - N/A   Clear
11:14 AM 60.8 °F 46.4 °F 59% 30.28 in 10.0 mi NNE 6.9 mph - N/A   Clear
11:34 AM 61.2 °F 45.7 °F 57% 30.28 in 10.0 mi NE 8.1 mph - N/A   Clear
11:54 AM 63.1 °F 46.0 °F 54% 30.28 in 10.0 mi NNE 9.2 mph - N/A   Clear
12:14 PM 64.0 °F 45.7 °F 51% 30.28 in 10.0 mi ENE 9.2 mph - N/A   Clear
12:34 PM 63.7 °F 45.1 °F 51% 30.28 in 10.0 mi NNE 6.9 mph - N/A   Clear
12:54 PM 64.9 °F 45.5 °F 49% 30.28 in 10.0 mi NE 8.1 mph - N/A   Clear
1:14 PM 64.9 °F 45.3 °F 49% 30.28 in 10.0 mi NNE 9.2 mph - N/A   Clear
1:34 PM 65.8 °F 44.8 °F 47% 30.27 in 10.0 mi ENE 3.5 mph - N/A   Clear
1:54 PM 66.7 °F 45.1 °F 46% 30.27 in 10.0 mi Calm Calm - N/A   Clear
2:14 PM 67.8 °F 44.6 °F 43% 30.27 in 10.0 mi North 3.5 mph - N/A   Clear
2:34 PM 67.6 °F 43.7 °F 42% 30.26 in 10.0 mi Calm Calm - N/A   Clear
2:54 PM 68.0 °F 41.0 °F 37% 30.26 in 10.0 mi Calm Calm - N/A   Clear
3:14 PM 69.1 °F 41.5 °F 37% 30.26 in 10.0 mi NNE 9.2 mph - N/A   Clear
3:34 PM 68.9 °F 41.0 °F 36% 30.25 in 10.0 mi NNE 3.5 mph - N/A   Clear
3:54 PM 68.9 °F 41.0 °F 36% 30.25 in 10.0 mi NE 4.6 mph - N/A   Clear
4:14 PM 69.8 °F 41.0 °F 35% 30.24 in 10.0 mi ENE 4.6 mph - N/A   Clear
4:34 PM 68.9 °F 39.7 °F 35% 30.24 in 10.0 mi Calm Calm - N/A   Clear
4:54 PM 69.4 °F 40.5 °F 35% 30.24 in 10.0 mi NE 6.9 mph - N/A   Clear
5:14 PM 69.4 °F 41.2 °F 36% 30.24 in 10.0 mi Calm Calm - N/A   Clear
5:34 PM 69.6 °F 40.5 °F 35% 30.24 in 10.0 mi North 3.5 mph - N/A   Clear
5:54 PM 69.3 °F 41.5 °F 37% 30.24 in 10.0 mi East 5.8 mph - N/A   Clear
6:14 PM 69.6 °F 42.4 °F 37% 30.24 in 7.0 mi NE 5.8 mph - N/A   Clear
6:34 PM 69.1 °F 41.7 °F 37% 30.24 in 10.0 mi Calm Calm - N/A   Clear
6:54 PM 68.5 °F 41.0 °F 37% 30.24 in 10.0 mi Calm Calm - N/A   Clear
7:14 PM 67.3 °F 44.4 °F 44% 30.24 in 10.0 mi ENE 3.5 mph - N/A   Clear
7:34 PM 65.8 °F 46.6 °F 50% 30.24 in 10.0 mi NE 3.5 mph - N/A   Clear
7:54 PM 64.4 °F 47.1 °F 53% 30.23 in 10.0 mi NE 3.5 mph - N/A   Clear
8:14 PM 60.1 °F 49.6 °F 68% 30.24 in 10.0 mi ENE 3.5 mph - N/A   Clear
8:34 PM 58.3 °F 48.7 °F 71% 30.24 in 10.0 mi ENE 3.5 mph - N/A   Clear
8:54 PM 57.6 °F 47.8 °F 70% 30.24 in 10.0 mi East 3.5 mph - N/A   Clear
9:14 PM 57.2 °F 48.2 °F 72% 30.25 in 10.0 mi East 3.5 mph - N/A   Clear
9:34 PM 55.6 °F 47.7 °F 75% 30.25 in 10.0 mi East 4.6 mph - N/A   Clear
9:54 PM 57.4 °F 46.9 °F 68% 30.25 in 10.0 mi East 3.5 mph - N/A   Clear
10:14 PM 56.5 °F 47.3 °F 71% 30.25 in 10.0 mi Calm Calm - N/A   Clear
10:34 PM 52.3 °F 46.9 °F 82% 30.25 in 10.0 mi ESE 5.8 mph - N/A   Clear
10:54 PM 55.4 °F 46.9 °F 73% 30.26 in 10.0 mi ESE 4.6 mph - N/A   Clear
11:14 PM 54.7 °F 47.1 °F 76% 30.25 in 10.0 mi SE 4.6 mph - N/A   Clear
11:34 PM 54.1 °F 46.9 °F 77% 30.25 in 10.0 mi ESE 3.5 mph - N/A   Clear
11:54 PM 54.5 °F 46.9 °F 76% 30.25 in 10.0 mi Calm Calm - N/A   Clear